Springfield, VT

6:37 AM EDT on June 23, 2017 (GMT -0400)
Hartness State

Weather History for KVSF - January, 2013

Change the Weather History Date:

Saturday, January 26, 2013

  Actual Average Record
Temperature  
Mean Temperature 9 °F 19 °F  
Max Temperature 17 °F 29 °F 50 °F (2017)
Min Temperature 1 °F 10 °F -13 °F (2004)
Degree Days  
Heating Degree Days 56 46  
Month to date heating degree days 1123 1185  
Since 1 July heating degree days 3529 4048  
Cooling Degree Days 0 0  
Month to date cooling degree days 0  
Year to date cooling degree days 0  
Moisture  
Dew Point -3 °F    
Average Humidity 60    
Maximum Humidity 87    
Minimum Humidity 33    
Precipitation  
Precipitation T in 0.07 in 0.13 in (2012)
Month to date precipitation 0.37 2.48  
Year to date precipitation 0.37 2.48  
Sea Level Pressure  
Sea Level Pressure 30.14 in    
Wind  
Wind Speed 5 mph (NW)    
Max Wind Speed 16 mph    
Max Gust Speed 22 mph    
Visibility 10 miles    
Events Snow    
T = Trace of Precipitation, MM = Missing Value Source: NWS Daily Summary

Daily Weather History Graph

Daily Weather History Graph

Search for Another Location

Airport or City:

Trip Planner

Search our weather history database for the weather conditions in past years. The results will help you decide how hot, cold, wet, or windy it might be!

Date:

Astronomy

Jan. 26, 2013 Rise Set
Actual Time 7:11 AM EST 4:54 PM EST
Civil Twilight 6:40 AM EST 5:25 PM EST
Nautical Twilight 6:06 AM EST 5:59 PM EST
Astronomical Twilight 5:32 AM EST 6:33 PM EST
Moon 4:47 PM EST (1/26) 6:26 AM EST (1/26)
Length of Visible Light 10h 44m
Length of Day
9h 42m
Full, 100% of the Moon is Illuminated
Jan 26
Full
Jan 26
Full
Feb 3
Last Quarter
Feb 10
New
Feb 17
First Quarter

Hourly Weather History & Observations

Time (EST) Temp. Windchill Dew Point Humidity Pressure Visibility Wind Dir Wind Speed Gust Speed Precip Events Conditions
12:54 AM 10.9 °F - 3.9 °F 73% 30.08 in 4.0 mi Calm Calm - 0.00 in Snow Light Snow
1:46 AM 10.4 °F - 3.2 °F 73% 30.04 in 10.0 mi Calm Calm - 0.00 in   Overcast
1:54 AM 10.0 °F - 3.0 °F 73% 30.08 in 10.0 mi Calm Calm - 0.00 in   Overcast
2:08 AM 10.4 °F - 3.2 °F 73% 30.04 in 10.0 mi Calm Calm - N/A   Overcast
2:54 AM 10.0 °F - 1.9 °F 70% 30.06 in 9.0 mi Calm Calm - N/A   Partly Cloudy
3:54 AM 7.0 °F - 1.9 °F 80% 30.07 in 10.0 mi Calm Calm - N/A   Clear
4:54 AM 3.9 °F - -0.9 °F 80% 30.07 in 10.0 mi Calm Calm - N/A   Clear
5:54 AM 3.0 °F - -2.9 °F 76% 30.09 in 10.0 mi Calm Calm - N/A   Clear
6:54 AM 1.9 °F - -4.0 °F 76% 30.11 in 10.0 mi Calm Calm - N/A   Clear
7:54 AM 1.0 °F - -2.9 °F 83% 30.13 in 10.0 mi Calm Calm - N/A   Clear
8:54 AM 6.1 °F -0.9 °F -0.9 °F 73% 30.13 in 10.0 mi ESE 3.5 mph - N/A   Clear
9:54 AM 10.0 °F 0.4 °F -2.0 °F 58% 30.14 in 10.0 mi ENE 5.8 mph - N/A   Clear
10:54 AM 12.0 °F 5.9 °F -2.0 °F 53% 30.14 in 10.0 mi SE 3.5 mph - N/A   Clear
11:54 AM 14.0 °F 8.2 °F -2.9 °F 47% 30.12 in 10.0 mi East 3.5 mph - N/A   Clear
12:54 PM 16.0 °F 2.3 °F -5.1 °F 39% 30.11 in 10.0 mi WNW 12.7 mph 21.9 mph N/A   Clear
1:54 PM 17.1 °F 3.6 °F -6.0 °F 36% 30.11 in 10.0 mi West 12.7 mph 20.7 mph N/A   Clear
2:54 PM 16.0 °F 3.6 °F -9.0 °F 32% 30.14 in 10.0 mi WNW 10.4 mph 16.1 mph N/A   Clear
3:54 PM 15.1 °F 2.5 °F -9.9 °F 32% 30.17 in 10.0 mi WNW 10.4 mph - N/A   Overcast
4:54 PM 15.1 °F 3.3 °F -9.0 °F 34% 30.19 in 10.0 mi WNW 9.2 mph - N/A   Clear
5:54 PM 14.0 °F 2.9 °F -8.0 °F 37% 30.21 in 10.0 mi WNW 8.1 mph 17.3 mph N/A   Clear
6:54 PM 12.9 °F - -7.1 °F 41% 30.22 in 10.0 mi Calm Calm - N/A   Clear
7:54 PM 10.9 °F 1.4 °F -6.0 °F 47% 30.24 in 10.0 mi NW 5.8 mph - N/A   Clear
8:54 PM 10.0 °F -3.7 °F -4.0 °F 53% 30.25 in 10.0 mi WNW 10.4 mph - N/A   Clear
9:54 PM 10.0 °F 1.8 °F -2.0 °F 58% 30.26 in 10.0 mi WNW 4.6 mph - N/A   Partly Cloudy
10:54 PM 10.0 °F 3.6 °F -2.0 °F 58% 30.28 in 10.0 mi WNW 3.5 mph - N/A   Clear
11:54 PM 10.9 °F -2.6 °F -2.0 °F 56% 30.27 in 10.0 mi NNW 10.4 mph 16.1 mph N/A   Clear